• MPC Preparation (Info)

  • MPEC 2014-K79 : 2014 KN76

    The following Minor Planet Electronic Circular may be linked-to from your own Web pages, but must not otherwise be redistributed electronically.

    A form allowing access to any MPEC is at the bottom of this page.


    Read MPEC 2014-K78 Read MPEC 2014-K80


    M.P.E.C. 2014-K79                                Issued 2014 May 30, 14:12 UT
    
         The Minor Planet Electronic Circulars contain information on unusual
             minor planets and routine data on comets.  They are published
       on behalf of Commission 20 of the International Astronomical Union by the
              Minor Planet Center, Smithsonian Astrophysical Observatory,
                              Cambridge, MA 02138, U.S.A.
    
                 Prepared using the Tamkin Foundation Computer Network
    
                                  MPC@CFA.HARVARD.EDU
                URL https://www.minorplanetcenter.net/    ISSN 1523-6714
    
                                       2014 KN76
    
    Observations:
         K14K76N* C2014 05 23.26038 10 05 09.187+14 56 09.14         21.7 wLEK079F51
         K14K76N  C2014 05 23.28604 10 05 12.418+14 57 32.00         21.9 wLEK079F51
         K14K76N  C2014 05 23.29895 10 05 14.046+14 58 13.39         21.8 wLEK079F51
         K14K76N KC2014 05 24.18624 10 07 10.83 +15 45 36.2          21.5 RoEK079291
         K14K76N KC2014 05 24.19201 10 07 11.61 +15 45 54.2          21.6 RoEK079291
         K14K76N KC2014 05 24.19780 10 07 12.29 +15 46 12.6          20.5 RoEK079291
         K14K76N _C2014 05 24.25597510 07 20.263+15 49 21.96         21.4 RtEK079568
         K14K76N _C2014 05 24.25767710 07 20.478+15 49 27.38         21.3 RtEK079568
         K14K76N _C2014 05 24.25893510 07 20.642+15 49 31.26         21.3 RtEK079568
         K14K76N KC2014 05 26.15456 10 11 35.94 +17 29 05.2          21.3 RoEK079291
         K14K76N KC2014 05 26.15861 10 11 36.47 +17 29 17.8          21.0 RoEK079291
         K14K76N KC2014 05 26.16267 10 11 37.01 +17 29 30.3          20.9 RoEK079291
         K14K76N KC2014 05 30.18074 10 21 02.25 +20 53 16.1          20.8 RoEK079291
         K14K76N KC2014 05 30.18484 10 21 02.82 +20 53 28.3          20.8 RoEK079291
         K14K76N KC2014 05 30.18895 10 21 03.41 +20 53 40.3          20.9 RoEK079291
         K14K76N _C2014 05 30.27359310 21 15.738+20 57 54.84         22.0 RtEK079568
         K14K76N _C2014 05 30.27492010 21 15.934+20 57 58.99               tEK079568
    
    Observer details:
    291 LPL/Spacewatch II.  Observers R. A. Mastaler, T. H. Bressi.  1.8-m f/2.7
        reflector + CCD.
    568 Mauna Kea.  Observers R. J. Wainscoat, L. Wells, A. Draginda.  Measurers
        M. Micheli, R. J. Wainscoat.  3.6-m Canada-France-Hawaii Telescope + CCD.
    F51 Pan-STARRS 1, Haleakala.  Observers N. Primak, A. Schultz, T. Goggia,
        M. Willman.  Measurer PS1 Science Consortium.  1.8-m Ritchey-Chretien
        + CCD.
    
    Orbital elements:
    2014 KN76                                                Earth MOID = 0.1273 AU
    Epoch 2014 May 23.0 TT = JDT 2456800.5                  MPC
    M 337.71163              (2000.0)            P               Q
    n   0.41218717     Peri.   64.00646     -0.03790382     +0.95633495
    a   1.7881601      Node   208.81179     -0.98613135     +0.01109671
    e   0.4707498      Incl.   36.96571     +0.16158051     +0.29206221
    P   2.39           H   20.4           G   0.15           U   7
    Residuals in seconds of arc
    140523 F51  0.2-  0.4-    140524 568  0.0   0.1-    140530 291  0.0   0.1-
    140523 F51  0.0   0.0     140524 568  0.0   0.0     140530 291  0.1-  0.0
    140523 F51  0.1+  0.0     140524 568  0.0   0.2-    140530 291  0.1+  0.1-
    140524 291  0.1+  0.3+    140526 291  0.0   0.2-    140530 568  0.1-  0.3-
    140524 291  0.6+  0.0     140526 291  0.1-  0.1-    140530 568  0.0   0.0
    140524 291  0.4-  0.0     140526 291  0.0   0.2-
    
    Ephemeris:
    2014 KN76                a,e,i = 1.79, 0.47, 37                  q = 0.9464
    Date    TT    R. A. (2000) Decl.     Delta      r     Elong.  Phase     V
    2014 04 30    09 25 50.7 -08 02 13   0.5704  1.2867   105.9    48.8    21.6
    ...
    2014 05 15    09 48 28.4 +07 12 42   0.5740  1.1876    92.9    58.2    21.7
    ...
    2014 05 23    10 04 35.6 +14 42 08   0.5866  1.1378    86.4    62.6    21.7
    ...
    2014 05 29    10 18 13.4 +19 54 28   0.5992  1.1026    81.9    65.5    21.8
    2014 05 30    10 20 36.7 +20 44 21   0.6015  1.0969    81.2    66.0    21.8
    2014 05 31    10 23 01.8 +21 33 37   0.6038  1.0913    80.5    66.4    21.8
    ...
    2014 06 06    10 38 10.1 +26 16 16   0.6182  1.0592    76.6    68.8    21.9
    ...
    2014 06 14    10 59 48.4 +32 00 11   0.6378  1.0212    72.2    71.3    22.0
    ...
    2014 06 29    11 44 01.2 +41 13 56   0.6697  0.9686    66.5    74.2    22.1
    
    A. U. Tomatic                (C) Copyright 2014 MPC           M.P.E.C. 2014-K79
    

    Read MPEC 2014-K78 Read MPEC 2014-K80


    MPEC number:

    Enter an MPEC number in one of the following forms:

    • 1997-B01 (the full form)
    • J97B01 (the packed version of the full form)
    • B01 (the abbreviated form)